owner,sensor,date,latitude,longitude,vertical_datum,direction_of_sea_water_velocity,sea_water_speed,upward_sea_water_velocity,qcFlag 
TABS,ioos:station:wmo:42048:1,2013-03-01T00:00:00Z,27.9396,-96.8429,2.0,225.8372803,19.34850899,-99999.0,'11111222,11111222,99999999' 
TABS,ioos:station:wmo:42048:1,2013-03-01T00:30:00Z,27.9396,-96.8429,2.0,241.6892794,16.15190391,-99999.0,'11111222,11111222,99999999' 
TABS,ioos:station:wmo:42048:1,2013-03-01T01:00:00Z,27.9396,-96.8429,2.0,235.1801828,16.3224508,-99999.0,'11111222,11111222,99999999' 
TABS,ioos:station:wmo:42048:1,2013-03-01T01:30:00Z,27.9396,-96.8429,2.0,237.2307699,14.31866265,-99999.0,'11111222,11111222,99999999' 
TABS,ioos:station:wmo:42048:1,2013-03-01T02:00:00Z,27.9396,-96.8429,2.0,246.5563613,13.22136529,-99999.0,'11111222,11111222,99999999' 
TABS,ioos:station:wmo:42048:1,2013-03-01T02:30:00Z,27.9396,-96.8429,2.0,230.0114807,10.84605919,-99999.0,'11111222,11111222,99999999' 
TABS,ioos:station:wmo:42048:1,2013-03-01T03:00:00Z,27.9396,-96.8429,2.0,242.9275622,10.10742301,-99999.0,'11111222,11111222,99999999' 
TABS,ioos:station:wmo:42048:1,2013-03-01T03:30:00Z,27.9396,-96.8429,2.0,238.3777855,10.45181324,-99999.0,'11111222,11111222,99999999' 
TABS,ioos:station:wmo:42048:1,2013-03-01T04:00:00Z,27.9396,-96.8429,2.0,248.4223888,10.44172878,-99999.0,'11111222,11111222,99999999' 
TABS,ioos:station:wmo:42048:1,2013-03-01T04:30:00Z,27.9396,-96.8429,2.0,254.1888013,8.771869812,-99999.0,'11133222,11111222,99999999' 
TABS,ioos:station:wmo:42048:1,2013-03-01T05:00:00Z,27.9396,-96.8429,2.0,248.4197233,7.205032963,-99999.0,'11133222,11111222,99999999' 
TABS,ioos:station:wmo:42048:1,2013-03-01T05:30:00Z,27.9396,-96.8429,2.0,241.1569864,4.726309342,-99999.0,'11133222,11111222,99999999' 
TABS,ioos:station:wmo:42048:1,2013-03-01T06:00:00Z,27.9396,-96.8429,2.0,248.8964531,5.638129122,-99999.0,'11133222,11111222,99999999' 
TABS,ioos:station:wmo:42048:1,2013-03-01T06:30:00Z,27.9396,-96.8429,2.0,215.8157865,3.588606972,-99999.0,'11133222,11111222,99999999' 
TABS,ioos:station:wmo:42048:1,2013-03-01T07:00:00Z,27.9396,-96.8429,2.0,254.1510363,4.06450489,-99999.0,'11133222,11111222,99999999' 
TABS,ioos:station:wmo:42048:1,2013-03-01T07:30:00Z,27.9396,-96.8429,2.0,263.978003,2.383149177,-99999.0,'11133222,11111222,99999999' 
TABS,ioos:station:wmo:42048:1,2013-03-01T08:00:00Z,27.9396,-96.8429,2.0,290.6202453,3.15192005,-99999.0,'11133222,11111222,99999999' 
TABS,ioos:station:wmo:42048:1,2013-03-01T08:30:00Z,27.9396,-96.8429,2.0,292.5949592,3.487692647,-99999.0,'11133222,11111222,99999999' 
TABS,ioos:station:wmo:42048:1,2013-03-01T09:00:00Z,27.9396,-96.8429,2.0,348.8573467,2.690724809,-99999.0,'11133222,11111222,99999999' 
TABS,ioos:station:wmo:42048:1,2013-03-01T09:30:00Z,27.9396,-96.8429,2.0,334.23791,2.553840246,-99999.0,'11133222,11111222,99999999' 
TABS,ioos:station:wmo:42048:1,2013-03-01T10:00:00Z,27.9396,-96.8429,2.0,12.64730702,2.100975964,-99999.0,'11133222,11111222,99999999' 
TABS,ioos:station:wmo:42048:1,2013-03-01T10:30:00Z,27.9396,-96.8429,2.0,70.75816672,1.122719912,-99999.0,'11133222,11111222,99999999' 
TABS,ioos:station:wmo:42048:1,2013-03-01T11:00:00Z,27.9396,-96.8429,2.0,51.44169027,4.411915684,-99999.0,'11133222,11111222,99999999' 
TABS,ioos:station:wmo:42048:1,2013-03-01T11:30:00Z,27.9396,-96.8429,2.0,59.71319496,4.064800118,-99999.0,'11133222,11111222,99999999' 
TABS,ioos:station:wmo:42048:1,2013-03-01T12:00:00Z,27.9396,-96.8429,2.0,81.30301367,4.43094798,-99999.0,'11133222,11111222,99999999' 
TABS,ioos:station:wmo:42048:1,2013-03-01T12:30:00Z,27.9396,-96.8429,2.0,58.83163321,6.240873336,-99999.0,'11133222,11111222,99999999' 
TABS,ioos:station:wmo:42048:1,2013-03-01T13:00:00Z,27.9396,-96.8429,2.0,60.52155782,8.270725482,-99999.0,'11133222,11111222,99999999' 
TABS,ioos:station:wmo:42048:1,2013-03-01T13:30:00Z,27.9396,-96.8429,2.0,63.0508788,8.671666507,-99999.0,'11133222,11111222,99999999' 
TABS,ioos:station:wmo:42048:1,2013-03-01T14:00:00Z,27.9396,-96.8429,2.0,66.12336746,6.102237295,-99999.0,'11133222,11111222,99999999' 
TABS,ioos:station:wmo:42048:1,2013-03-01T14:30:00Z,27.9396,-96.8429,2.0,58.47583287,9.467174869,-99999.0,'11133222,11111222,99999999' 
TABS,ioos:station:wmo:42048:1,2013-03-01T15:00:00Z,27.9396,-96.8429,2.0,71.10489819,7.874325368,-99999.0,'11133222,11111222,99999999' 
TABS,ioos:station:wmo:42048:1,2013-03-01T15:30:00Z,27.9396,-96.8429,2.0,81.1475241,9.422239649,-99999.0,'11133222,11111222,99999999' 
TABS,ioos:station:wmo:42048:1,2013-03-01T16:00:00Z,27.9396,-96.8429,2.0,82.59596528,9.932819338,-99999.0,'11133222,11111222,99999999' 
TABS,ioos:station:wmo:42048:1,2013-03-01T16:30:00Z,27.9396,-96.8429,2.0,68.88706035,10.35511951,-99999.0,'11111222,11111222,99999999' 
TABS,ioos:station:wmo:42048:1,2013-03-01T17:00:00Z,27.9396,-96.8429,2.0,72.00569581,11.10308516,-99999.0,'11111222,11111222,99999999' 
TABS,ioos:station:wmo:42048:1,2013-03-01T17:30:00Z,27.9396,-96.8429,2.0,66.46056382,9.489683873,-99999.0,'11133222,11111222,99999999' 
TABS,ioos:station:wmo:42048:1,2013-03-01T18:00:00Z,27.9396,-96.8429,2.0,69.07831603,11.36960861,-99999.0,'11111222,11111222,99999999' 
TABS,ioos:station:wmo:42048:1,2013-03-01T18:30:00Z,27.9396,-96.8429,2.0,74.22068852,8.531500454,-99999.0,'11133222,11111222,99999999' 
TABS,ioos:station:wmo:42048:1,2013-03-01T19:00:00Z,27.9396,-96.8429,2.0,64.22123835,7.496005603,-99999.0,'11133222,11111222,99999999' 
TABS,ioos:station:wmo:42048:1,2013-03-01T19:30:00Z,27.9396,-96.8429,2.0,60.4787072,5.723006203,-99999.0,'11133222,11111222,99999999' 
TABS,ioos:station:wmo:42048:1,2013-03-01T20:00:00Z,27.9396,-96.8429,2.0,54.16952277,7.277197263,-99999.0,'11133222,11111222,99999999' 
TABS,ioos:station:wmo:42048:1,2013-03-01T20:30:00Z,27.9396,-96.8429,2.0,38.89345039,6.514061713,-99999.0,'11133222,11111222,99999999' 
TABS,ioos:station:wmo:42048:1,2013-03-01T21:00:00Z,27.9396,-96.8429,2.0,34.95810508,8.272605394,-99999.0,'11133222,11111222,99999999' 
TABS,ioos:station:wmo:42048:1,2013-03-01T21:30:00Z,27.9396,-96.8429,2.0,29.43555799,8.03756804,-99999.0,'11133222,11111222,99999999' 
TABS,ioos:station:wmo:42048:1,2013-03-01T22:00:00Z,27.9396,-96.8429,2.0,10.06819021,9.953270819,-99999.0,'11133222,11111222,99999999' 
TABS,ioos:station:wmo:42048:1,2013-03-01T22:30:00Z,27.9396,-96.8429,2.0,20.92059051,11.59433051,-99999.0,'11111222,11111222,99999999' 
TABS,ioos:station:wmo:42048:1,2013-03-01T23:00:00Z,27.9396,-96.8429,2.0,17.08168799,11.9156242,-99999.0,'11111222,11111222,99999999' 
TABS,ioos:station:wmo:42048:1,2013-03-01T23:30:00Z,27.9396,-96.8429,2.0,16.93842083,13.31773254,-99999.0,'11111222,11111222,99999999' 
TABS,ioos:station:wmo:42048:1,2013-03-02T00:00:00Z,27.9396,-96.8429,2.0,12.78521484,11.88465397,-99999.0,'11111222,11111222,99999999' 
TABS,ioos:station:wmo:42048:1,2013-03-02T00:30:00Z,27.9396,-96.8429,2.0,25.6306063,13.70892045,-99999.0,'11111222,11111222,99999999' 
TABS,ioos:station:wmo:42048:1,2013-03-02T01:00:00Z,27.9396,-96.8429,2.0,28.95736034,15.42889821,-99999.0,'11111222,11111222,99999999' 
TABS,ioos:station:wmo:42048:1,2013-03-02T01:30:00Z,27.9396,-96.8429,2.0,29.12245593,16.43805341,-99999.0,'11111222,11111222,99999999' 
TABS,ioos:station:wmo:42048:1,2013-03-02T02:00:00Z,27.9396,-96.8429,2.0,35.5113581,17.62895629,-99999.0,'11111222,11111222,99999999' 
TABS,ioos:station:wmo:42048:1,2013-03-02T02:30:00Z,27.9396,-96.8429,2.0,35.03282009,18.46549214,-99999.0,'11111222,11111222,99999999' 
TABS,ioos:station:wmo:42048:1,2013-03-02T03:00:00Z,27.9396,-96.8429,2.0,35.7896601,19.30543188,-99999.0,'11111222,11111222,99999999' 
TABS,ioos:station:wmo:42048:1,2013-03-02T03:30:00Z,27.9396,-96.8429,2.0,34.25715245,20.18098115,-99999.0,'11111222,11111222,99999999' 
TABS,ioos:station:wmo:42048:1,2013-03-02T04:00:00Z,27.9396,-96.8429,2.0,33.31292868,18.95451661,-99999.0,'11111222,11111222,99999999' 
TABS,ioos:station:wmo:42048:1,2013-03-02T04:30:00Z,27.9396,-96.8429,2.0,45.36135924,22.42987294,-99999.0,'11111222,11111222,99999999' 
TABS,ioos:station:wmo:42048:1,2013-03-02T05:00:00Z,27.9396,-96.8429,2.0,45.57380747,21.18598121,-99999.0,'11111222,11111222,99999999' 
TABS,ioos:station:wmo:42048:1,2013-03-02T05:30:00Z,27.9396,-96.8429,2.0,47.07839781,22.42296368,-99999.0,'11111222,11111222,99999999' 
TABS,ioos:station:wmo:42048:1,2013-03-02T06:00:00Z,27.9396,-96.8429,2.0,53.96544376,23.18646372,-99999.0,'11111222,11111222,99999999' 
TABS,ioos:station:wmo:42048:1,2013-03-02T06:30:00Z,27.9396,-96.8429,2.0,62.0915507,23.84303882,-99999.0,'11111222,11111222,99999999' 
TABS,ioos:station:wmo:42048:1,2013-03-02T07:00:00Z,27.9396,-96.8429,2.0,59.02617146,19.37248048,-99999.0,'11111222,11111222,99999999' 
TABS,ioos:station:wmo:42048:1,2013-03-02T07:30:00Z,27.9396,-96.8429,2.0,55.79553357,16.98837838,-99999.0,'11111222,11111222,99999999' 
TABS,ioos:station:wmo:42048:1,2013-03-02T08:00:00Z,27.9396,-96.8429,2.0,53.52055009,15.5583611,-99999.0,'11111222,11111222,99999999' 
TABS,ioos:station:wmo:42048:1,2013-03-02T08:30:00Z,27.9396,-96.8429,2.0,52.21005021,16.56413596,-99999.0,'11111222,11111222,99999999' 
TABS,ioos:station:wmo:42048:1,2013-03-02T09:00:00Z,27.9396,-96.8429,2.0,59.9911549,13.99622806,-99999.0,'11111222,11111222,99999999' 
TABS,ioos:station:wmo:42048:1,2013-03-02T09:30:00Z,27.9396,-96.8429,2.0,52.3391415,13.61729782,-99999.0,'11111222,11111222,99999999' 
TABS,ioos:station:wmo:42048:1,2013-03-02T10:00:00Z,27.9396,-96.8429,2.0,50.46658959,13.2122746,-99999.0,'11111222,11111222,99999999' 
TABS,ioos:station:wmo:42048:1,2013-03-02T10:30:00Z,27.9396,-96.8429,2.0,51.05227815,15.22401064,-99999.0,'11111222,11111222,99999999' 
TABS,ioos:station:wmo:42048:1,2013-03-02T11:00:00Z,27.9396,-96.8429,2.0,59.07687437,14.53622372,-99999.0,'11111222,11111222,99999999' 
TABS,ioos:station:wmo:42048:1,2013-03-02T11:30:00Z,27.9396,-96.8429,2.0,59.37691663,13.270795,-99999.0,'11111222,11111222,99999999' 
TABS,ioos:station:wmo:42048:1,2013-03-02T12:00:00Z,27.9396,-96.8429,2.0,57.34602582,14.41901522,-99999.0,'11111222,11111222,99999999' 
TABS,ioos:station:wmo:42048:1,2013-03-02T12:30:00Z,27.9396,-96.8429,2.0,63.27355834,12.69644438,-99999.0,'11111222,11111222,99999999' 
TABS,ioos:station:wmo:42048:1,2013-03-02T13:00:00Z,27.9396,-96.8429,2.0,63.75788258,8.729747992,-99999.0,'11133222,11111222,99999999' 
TABS,ioos:station:wmo:42048:1,2013-03-02T13:30:00Z,27.9396,-96.8429,2.0,68.02384176,5.47803797,-99999.0,'11133222,11111222,99999999' 
TABS,ioos:station:wmo:42048:1,2013-03-02T14:00:00Z,27.9396,-96.8429,2.0,64.63899438,9.152010708,-99999.0,'11133222,11111222,99999999' 
TABS,ioos:station:wmo:42048:1,2013-03-02T14:30:00Z,27.9396,-96.8429,2.0,66.80146373,6.016460754,-99999.0,'11133222,11111222,99999999' 
TABS,ioos:station:wmo:42048:1,2013-03-02T15:00:00Z,27.9396,-96.8429,2.0,85.46905901,2.658307732,-99999.0,'11133222,11111222,99999999' 
TABS,ioos:station:wmo:42048:1,2013-03-02T15:30:00Z,27.9396,-96.8429,2.0,116.2166916,4.414079746,-99999.0,'11133222,11111222,99999999' 
TABS,ioos:station:wmo:42048:1,2013-03-02T16:00:00Z,27.9396,-96.8429,2.0,111.9866308,2.297063343,-99999.0,'11133222,11111222,99999999' 
TABS,ioos:station:wmo:42048:1,2013-03-02T16:30:00Z,27.9396,-96.8429,2.0,203.5320831,1.352479205,-99999.0,'11133222,11111222,99999999' 
TABS,ioos:station:wmo:42048:1,2013-03-02T17:00:00Z,27.9396,-96.8429,2.0,130.1353917,2.00124961,-99999.0,'11133222,11111222,99999999' 
TABS,ioos:station:wmo:42048:1,2013-03-02T17:30:00Z,27.9396,-96.8429,2.0,79.03215346,1.314001522,-99999.0,'11133222,11111222,99999999' 
TABS,ioos:station:wmo:42048:1,2013-03-02T18:00:00Z,27.9396,-96.8429,2.0,118.7570537,1.870721786,-99999.0,'11133222,11111222,99999999' 
TABS,ioos:station:wmo:42048:1,2013-03-02T18:30:00Z,27.9396,-96.8429,2.0,78.9106304,2.547567467,-99999.0,'11133222,11111222,99999999' 
TABS,ioos:station:wmo:42048:1,2013-03-02T19:00:00Z,27.9396,-96.8429,2.0,49.92720366,2.469858296,-99999.0,'11133222,11111222,99999999' 
TABS,ioos:station:wmo:42048:1,2013-03-02T19:30:00Z,27.9396,-96.8429,2.0,113.2860105,4.300290688,-99999.0,'11133222,11111222,99999999' 
TABS,ioos:station:wmo:42048:1,2013-03-02T20:00:00Z,27.9396,-96.8429,2.0,62.1027942,0.961769203,-99999.0,'11133222,11111222,99999999' 
TABS,ioos:station:wmo:42048:1,2013-03-02T20:30:00Z,27.9396,-96.8429,2.0,84.52730113,3.355294324,-99999.0,'11133222,11111222,99999999' 
TABS,ioos:station:wmo:42048:1,2013-03-02T21:00:00Z,27.9396,-96.8429,2.0,129.8717157,4.430079006,-99999.0,'11133222,11111222,99999999' 
TABS,ioos:station:wmo:42048:1,2013-03-02T21:30:00Z,27.9396,-96.8429,2.0,81.32684623,3.580949595,-99999.0,'11133222,11111222,99999999' 
TABS,ioos:station:wmo:42048:1,2013-03-02T22:00:00Z,27.9396,-96.8429,2.0,35.55868548,6.379670838,-99999.0,'11133222,11111222,99999999' 
TABS,ioos:station:wmo:42048:1,2013-03-02T22:30:00Z,27.9396,-96.8429,2.0,42.24708687,7.213743827,-99999.0,'11133222,11111222,99999999' 
TABS,ioos:station:wmo:42048:1,2013-03-02T23:00:00Z,27.9396,-96.8429,2.0,71.72914722,8.83544,-99999.0,'11133222,11111222,99999999' 
TABS,ioos:station:wmo:42048:1,2013-03-02T23:30:00Z,27.9396,-96.8429,2.0,32.90147532,7.25339231,-99999.0,'11133222,11111222,99999999' 
TABS,ioos:station:wmo:42048:1,2013-03-03T00:00:00Z,27.9396,-96.8429,2.0,57.8288581,8.789539237,-99999.0,'11133222,11111222,99999999' 
TABS,ioos:station:wmo:42048:1,2013-03-03T00:30:00Z,27.9396,-96.8429,2.0,58.11806708,4.922641567,-99999.0,'11133222,11111222,99999999' 
TABS,ioos:station:wmo:42048:1,2013-03-03T01:00:00Z,27.9396,-96.8429,2.0,52.28222238,9.595050808,-99999.0,'11133222,11111222,99999999' 
TABS,ioos:station:wmo:42048:1,2013-03-03T01:30:00Z,27.9396,-96.8429,2.0,23.76172437,6.94907188,-99999.0,'11133222,11111222,99999999' 
TABS,ioos:station:wmo:42048:1,2013-03-03T02:00:00Z,27.9396,-96.8429,2.0,32.06536541,8.118528192,-99999.0,'11133222,11111222,99999999' 
TABS,ioos:station:wmo:42048:1,2013-03-03T02:30:00Z,27.9396,-96.8429,2.0,46.71503141,7.088384865,-99999.0,'11133222,11111222,99999999' 
TABS,ioos:station:wmo:42048:1,2013-03-03T03:00:00Z,27.9396,-96.8429,2.0,25.2454469,6.213445099,-99999.0,'11133222,11111222,99999999' 
TABS,ioos:station:wmo:42048:1,2013-03-03T03:30:00Z,27.9396,-96.8429,2.0,27.1196562,6.932135313,-99999.0,'11133222,11111222,99999999' 
TABS,ioos:station:wmo:42048:1,2013-03-03T04:00:00Z,27.9396,-96.8429,2.0,52.67973315,6.614204412,-99999.0,'11133222,11111222,99999999' 
TABS,ioos:station:wmo:42048:1,2013-03-03T04:30:00Z,27.9396,-96.8429,2.0,35.9389894,7.138942499,-99999.0,'11133222,11111222,99999999' 
TABS,ioos:station:wmo:42048:1,2013-03-03T05:00:00Z,27.9396,-96.8429,2.0,21.16142079,4.321400236,-99999.0,'11133222,11111222,99999999' 
TABS,ioos:station:wmo:42048:1,2013-03-03T05:30:00Z,27.9396,-96.8429,2.0,21.88119043,6.681324719,-99999.0,'11133222,11111222,99999999' 
TABS,ioos:station:wmo:42048:1,2013-03-03T06:00:00Z,27.9396,-96.8429,2.0,27.5652713,5.380799197,-99999.0,'11133222,11111222,99999999' 
TABS,ioos:station:wmo:42048:1,2013-03-03T06:30:00Z,27.9396,-96.8429,2.0,21.33701986,6.870953355,-99999.0,'11133222,11111222,99999999' 
TABS,ioos:station:wmo:42048:1,2013-03-03T07:00:00Z,27.9396,-96.8429,2.0,17.80204088,4.579257582,-99999.0,'11133222,11111222,99999999' 
TABS,ioos:station:wmo:42048:1,2013-03-03T07:30:00Z,27.9396,-96.8429,2.0,14.72509093,6.255445628,-99999.0,'11133222,11111222,99999999' 
TABS,ioos:station:wmo:42048:1,2013-03-03T08:00:00Z,27.9396,-96.8429,2.0,358.8049457,6.711460348,-99999.0,'11133222,11111222,99999999' 
TABS,ioos:station:wmo:42048:1,2013-03-03T08:30:00Z,27.9396,-96.8429,2.0,16.05259693,4.412029012,-99999.0,'11133222,11111222,99999999' 
TABS,ioos:station:wmo:42048:1,2013-03-03T09:00:00Z,27.9396,-96.8429,2.0,6.472850844,6.209581306,-99999.0,'11133222,11111222,99999999' 
TABS,ioos:station:wmo:42048:1,2013-03-03T09:30:00Z,27.9396,-96.8429,2.0,9.876097008,7.287996981,-99999.0,'11133222,11111222,99999999' 
TABS,ioos:station:wmo:42048:1,2013-03-03T10:00:00Z,27.9396,-96.8429,2.0,10.36804541,8.946066175,-99999.0,'11133222,11111222,99999999' 
TABS,ioos:station:wmo:42048:1,2013-03-03T10:30:00Z,27.9396,-96.8429,2.0,15.24799189,6.882274333,-99999.0,'11133222,11111222,99999999' 
TABS,ioos:station:wmo:42048:1,2013-03-03T11:00:00Z,27.9396,-96.8429,2.0,24.98503074,9.730596076,-99999.0,'11133222,11111222,99999999' 
TABS,ioos:station:wmo:42048:1,2013-03-03T11:30:00Z,27.9396,-96.8429,2.0,8.816920058,8.024823986,-99999.0,'11133222,11111222,99999999' 
TABS,ioos:station:wmo:42048:1,2013-03-03T12:00:00Z,27.9396,-96.8429,2.0,21.1635302,8.171101517,-99999.0,'11133222,11111222,99999999' 
TABS,ioos:station:wmo:42048:1,2013-03-03T12:30:00Z,27.9396,-96.8429,2.0,26.64888346,9.185777049,-99999.0,'11133222,11111222,99999999' 
TABS,ioos:station:wmo:42048:1,2013-03-03T13:00:00Z,27.9396,-96.8429,2.0,38.00654246,9.175805142,-99999.0,'11133222,11111222,99999999' 
TABS,ioos:station:wmo:42048:1,2013-03-03T13:30:00Z,27.9396,-96.8429,2.0,40.86592543,10.10255908,-99999.0,'11111222,11111222,99999999' 
TABS,ioos:station:wmo:42048:1,2013-03-03T14:00:00Z,27.9396,-96.8429,2.0,35.60874483,11.26672978,-99999.0,'11111222,11111222,99999999' 
TABS,ioos:station:wmo:42048:1,2013-03-03T14:30:00Z,27.9396,-96.8429,2.0,41.58971781,9.747050836,-99999.0,'11133222,11111222,99999999' 
TABS,ioos:station:wmo:42048:1,2013-03-03T15:00:00Z,27.9396,-96.8429,2.0,40.44573044,11.57653662,-99999.0,'11111222,11111222,99999999' 
TABS,ioos:station:wmo:42048:1,2013-03-03T15:30:00Z,27.9396,-96.8429,2.0,41.40113841,12.2783753,-99999.0,'11111222,11111222,99999999' 
TABS,ioos:station:wmo:42048:1,2013-03-03T16:00:00Z,27.9396,-96.8429,2.0,46.5637763,12.69729499,-99999.0,'11111222,11111222,99999999' 
TABS,ioos:station:wmo:42048:1,2013-03-03T16:30:00Z,27.9396,-96.8429,2.0,56.37780068,11.72082335,-99999.0,'11111222,11111222,99999999' 
TABS,ioos:station:wmo:42048:1,2013-03-03T17:00:00Z,27.9396,-96.8429,2.0,61.78471765,12.26768519,-99999.0,'11111222,11111222,99999999' 
TABS,ioos:station:wmo:42048:1,2013-03-03T17:30:00Z,27.9396,-96.8429,2.0,51.61393802,15.04126657,-99999.0,'11111222,11111222,99999999' 
TABS,ioos:station:wmo:42048:1,2013-03-03T18:00:00Z,27.9396,-96.8429,2.0,65.09809049,13.2520489,-99999.0,'11111222,11111222,99999999' 
TABS,ioos:station:wmo:42048:1,2013-03-03T18:30:00Z,27.9396,-96.8429,2.0,54.19033306,16.64684955,-99999.0,'11111222,11111222,99999999' 
TABS,ioos:station:wmo:42048:1,2013-03-03T19:00:00Z,27.9396,-96.8429,2.0,56.25305735,16.74086019,-99999.0,'11111222,11111222,99999999' 
TABS,ioos:station:wmo:42048:1,2013-03-03T19:30:00Z,27.9396,-96.8429,2.0,53.96551412,17.55986617,-99999.0,'11111222,11111222,99999999' 
TABS,ioos:station:wmo:42048:1,2013-03-03T20:00:00Z,27.9396,-96.8429,2.0,43.79014152,17.41285158,-99999.0,'11111222,11111222,99999999' 
TABS,ioos:station:wmo:42048:1,2013-03-03T20:30:00Z,27.9396,-96.8429,2.0,46.41059466,17.81034531,-99999.0,'11111222,11111222,99999999' 
TABS,ioos:station:wmo:42048:1,2013-03-03T21:00:00Z,27.9396,-96.8429,2.0,41.97359852,18.61580243,-99999.0,'11111222,11111222,99999999' 
TABS,ioos:station:wmo:42048:1,2013-03-03T21:30:00Z,27.9396,-96.8429,2.0,40.40498598,20.56512825,-99999.0,'11111222,11111222,99999999' 
TABS,ioos:station:wmo:42048:1,2013-03-03T22:00:00Z,27.9396,-96.8429,2.0,34.473441,19.27485927,-99999.0,'11111222,11111222,99999999' 
TABS,ioos:station:wmo:42048:1,2013-03-03T22:30:00Z,27.9396,-96.8429,2.0,43.4369111,18.9221484,-99999.0,'11111222,11111222,99999999' 
TABS,ioos:station:wmo:42048:1,2013-03-03T23:00:00Z,27.9396,-96.8429,2.0,45.33632021,20.48523615,-99999.0,'11111222,11111222,99999999' 
TABS,ioos:station:wmo:42048:1,2013-03-03T23:30:00Z,27.9396,-96.8429,2.0,42.74783207,19.43216406,-99999.0,'11111222,11111222,99999999' 
TABS,ioos:station:wmo:42048:1,2013-03-04T00:00:00Z,27.9396,-96.8429,2.0,50.71726341,18.38430037,-99999.0,'11111222,11111222,99999999' 
TABS,ioos:station:wmo:42048:1,2013-03-04T00:30:00Z,27.9396,-96.8429,2.0,50.69983808,18.58271509,-99999.0,'11111222,11111222,99999999' 
TABS,ioos:station:wmo:42048:1,2013-03-04T01:00:00Z,27.9396,-96.8429,2.0,45.96202685,18.11155708,-99999.0,'11111222,11111222,99999999' 
TABS,ioos:station:wmo:42048:1,2013-03-04T01:30:00Z,27.9396,-96.8429,2.0,43.87680514,19.4774639,-99999.0,'11111222,11111222,99999999' 
TABS,ioos:station:wmo:42048:1,2013-03-04T02:00:00Z,27.9396,-96.8429,2.0,51.52612268,22.14867942,-99999.0,'11111222,11111222,99999999' 
TABS,ioos:station:wmo:42048:1,2013-03-04T02:30:00Z,27.9396,-96.8429,2.0,44.71981222,24.57225468,-99999.0,'11111222,11111222,99999999' 
TABS,ioos:station:wmo:42048:1,2013-03-04T03:00:00Z,27.9396,-96.8429,2.0,48.02840665,21.95096353,-99999.0,'11111222,11111222,99999999' 
TABS,ioos:station:wmo:42048:1,2013-03-04T03:30:00Z,27.9396,-96.8429,2.0,49.18165201,23.46770547,-99999.0,'11111222,11111222,99999999' 
TABS,ioos:station:wmo:42048:1,2013-03-04T04:00:00Z,27.9396,-96.8429,2.0,50.39298503,25.50509949,-99999.0,'11111222,11111222,99999999' 
TABS,ioos:station:wmo:42048:1,2013-03-04T04:30:00Z,27.9396,-96.8429,2.0,42.19810488,25.45799678,-99999.0,'11111222,11111222,99999999' 
TABS,ioos:station:wmo:42048:1,2013-03-04T05:00:00Z,27.9396,-96.8429,2.0,55.24266821,25.60940452,-99999.0,'11111222,11111222,99999999' 
TABS,ioos:station:wmo:42048:1,2013-03-04T05:30:00Z,27.9396,-96.8429,2.0,49.45921455,29.83120849,-99999.0,'11111222,11111222,99999999' 
TABS,ioos:station:wmo:42048:1,2013-03-04T06:00:00Z,27.9396,-96.8429,2.0,53.8547724,31.78854196,-99999.0,'11111222,11111222,99999999' 
TABS,ioos:station:wmo:42048:1,2013-03-04T06:30:00Z,27.9396,-96.8429,2.0,54.54325318,31.30552028,-99999.0,'11111222,11111222,99999999' 
TABS,ioos:station:wmo:42048:1,2013-03-04T07:00:00Z,27.9396,-96.8429,2.0,48.38310311,31.63451596,-99999.0,'11111222,11111222,99999999' 
TABS,ioos:station:wmo:42048:1,2013-03-04T07:30:00Z,27.9396,-96.8429,2.0,50.00333714,32.99912878,-99999.0,'11111222,11111222,99999999' 
TABS,ioos:station:wmo:42048:1,2013-03-04T08:00:00Z,27.9396,-96.8429,2.0,50.68798799,33.74665169,-99999.0,'11111222,11111222,99999999' 
TABS,ioos:station:wmo:42048:1,2013-03-04T08:30:00Z,27.9396,-96.8429,2.0,45.59874723,34.51576596,-99999.0,'11111222,11111222,99999999' 
TABS,ioos:station:wmo:42048:1,2013-03-04T09:00:00Z,27.9396,-96.8429,2.0,47.92441305,35.62092784,-99999.0,'11111222,11111222,99999999' 
TABS,ioos:station:wmo:42048:1,2013-03-04T09:30:00Z,27.9396,-96.8429,2.0,49.11190158,37.47412174,-99999.0,'11111222,11111222,99999999' 
TABS,ioos:station:wmo:42048:1,2013-03-04T10:00:00Z,27.9396,-96.8429,2.0,48.22133051,36.36739336,-99999.0,'11111222,11111222,99999999' 
TABS,ioos:station:wmo:42048:1,2013-03-04T10:30:00Z,27.9396,-96.8429,2.0,48.84120447,35.88850512,-99999.0,'11111222,11111222,99999999' 
TABS,ioos:station:wmo:42048:1,2013-03-04T11:00:00Z,27.9396,-96.8429,2.0,47.84525826,39.88756448,-99999.0,'11111222,11111222,99999999' 
TABS,ioos:station:wmo:42048:1,2013-03-04T11:30:00Z,27.9396,-96.8429,2.0,47.68338158,38.5159097,-99999.0,'11111222,11111222,99999999' 
TABS,ioos:station:wmo:42048:1,2013-03-04T12:00:00Z,27.9396,-96.8429,2.0,49.59684986,38.90996402,-99999.0,'11111222,11111222,99999999' 
TABS,ioos:station:wmo:42048:1,2013-03-04T12:30:00Z,27.9396,-96.8429,2.0,44.65263549,43.14137805,-99999.0,'11111222,11111222,99999999' 
TABS,ioos:station:wmo:42048:1,2013-03-04T13:00:00Z,27.9396,-96.8429,2.0,44.68649809,42.63210645,-99999.0,'11111222,11111222,99999999' 
TABS,ioos:station:wmo:42048:1,2013-03-04T13:30:00Z,27.9396,-96.8429,2.0,51.08268233,38.90483903,-99999.0,'11111222,11111222,99999999' 
TABS,ioos:station:wmo:42048:1,2013-03-04T14:00:00Z,27.9396,-96.8429,2.0,48.40346552,43.83307427,-99999.0,'11111222,11111222,99999999' 
TABS,ioos:station:wmo:42048:1,2013-03-04T14:30:00Z,27.9396,-96.8429,2.0,48.64532522,41.81804634,-99999.0,'11111222,11111222,99999999' 
TABS,ioos:station:wmo:42048:1,2013-03-04T15:00:00Z,27.9396,-96.8429,2.0,45.58983996,45.34208862,-99999.0,'11111222,11111222,99999999' 
TABS,ioos:station:wmo:42048:1,2013-03-04T15:30:00Z,27.9396,-96.8429,2.0,46.53233943,48.1287544,-99999.0,'11111222,11111222,99999999' 
TABS,ioos:station:wmo:42048:1,2013-03-04T16:00:00Z,27.9396,-96.8429,2.0,46.0022097,47.70872038,-99999.0,'11111222,11111222,99999999' 